#timestamp,LO_Frequency,Hit,Temp,Hum 
1487822415.1,286046977.4,N,0.0,0.0
1487822435.9,286046973.4,N,0.0,0.0
1487822455.7,286046971.9,N,0.0,0.0
1487822475.5,286046971.8,N,0.0,0.0
1487822495.4,286046970.3,N,0.0,0.0
1487822515.2,286046967.7,N,0.0,0.0
1487822535.0,286046970.2,N,0.0,0.0
1487822535.9,286046970.2,N,0.0,0.0
1487822555.8,286046968.5,N,0.0,0.0
1487822575.6,286046966.9,N,0.0,0.0
1487822595.4,286046963.9,N,0.0,0.0
1487822615.3,286046961.2,N,0.0,0.0
1487822635.1,286046957.0,Y,0.0,0.0
1487822655.8,286046984.3,N,0.0,0.0
1487822675.7,286046980.9,N,0.0,0.0
1487822695.5,286046979.5,N,0.0,0.0
1487822715.3,286046980.3,N,0.0,0.0
1487822735.2,286046978.0,N,0.0,0.0
1487822755.0,286046977.6,N,0.0,0.0
1487822755.9,286046977.6,N,0.0,0.0
1487822775.7,286046978.8,N,0.0,0.0
1487822795.6,286046977.2,N,0.0,0.0
1487822815.4,286046976.3,N,0.0,0.0
1487822835.2,286046974.6,N,0.0,0.0
1487822855.1,286046972.9,N,0.0,0.0
1487822856.0,286046972.9,N,0.0,0.0
1487822875.8,286046971.2,N,0.0,0.0
1487822895.6,286046970.5,N,0.0,0.0
1487822915.5,286046971.1,Y,0.0,0.0
1487822935.3,286046992.1,N,0.0,0.0
1487822955.1,286046992.9,N,0.0,0.0
1487822975.9,286046987.2,N,0.0,0.0
1487822995.7,286046988.2,N,0.0,0.0
1487823015.5,286046988.2,N,0.0,0.0
1487823035.4,286046984.1,N,0.0,0.0
1487823055.2,286046986.1,N,0.0,0.0
1487823075.0,286046982.5,N,0.0,0.0
1487823075.9,286046982.5,N,0.0,0.0
1487823095.8,286046981.2,N,0.0,0.0
1487823115.6,286046981.7,N,0.0,0.0
1487823135.4,286046978.9,N,0.0,0.0
1487823155.3,286046979.0,N,0.0,0.0
1487823175.1,286046979.7,N,0.0,0.0
1487823176.0,286046979.7,N,0.0,0.0
1487823195.8,286046977.5,N,0.0,0.0
1487823215.7,286046975.3,Y,0.0,0.0
1487823235.5,286046996.8,N,0.0,0.0
1487823255.3,286046996.0,N,0.0,0.0
1487823275.2,286046995.2,N,0.0,0.0
1487823295.9,286046993.5,N,0.0,0.0
1487823315.7,286046996.1,N,0.0,0.0
1487823335.6,286046996.2,N,0.0,0.0
1487823355.4,286046992.2,N,0.0,0.0
1487823375.2,286046991.6,N,0.0,0.0
1487823395.1,286046987.0,N,0.0,0.0
1487823396.0,286046987.0,N,0.0,0.0
1487823415.8,286046989.3,N,0.0,0.0
1487823435.6,286046990.0,N,0.0,0.0
1487823455.5,286046984.8,N,0.0,0.0
1487823475.3,286046988.1,N,0.0,0.0
1487823495.1,286046986.3,N,0.0,0.0
1487823515.8,286046984.3,N,0.0,0.0
1487823535.7,286046984.5,N,0.0,0.0
1487823555.5,286046984.8,N,0.0,0.0
1487823575.3,286046984.1,N,0.0,0.0
1487823595.2,286046984.9,N,0.0,0.0
1487823615.0,286046983.4,N,0.0,0.0
1487823615.9,286046983.4,N,0.0,0.0
1487823635.8,286046979.3,Y,0.0,0.0
1487823655.6,286046993.3,N,0.0,0.0
1487823675.4,286046993.6,N,0.0,0.0
1487823695.2,286046991.8,N,0.0,0.0
1487823715.1,286046994.3,N,0.0,0.0
1487823716.0,286046994.3,N,0.0,0.0
1487823735.8,286046994.4,N,0.0,0.0
1487823755.6,286046990.7,N,0.0,0.0
1487823775.5,286046991.2,N,0.0,0.0
1487823795.3,286046988.8,N,0.0,0.0
1487823815.1,286046988.8,N,0.0,0.0
1487823835.9,286046988.6,N,0.0,0.0
1487823855.7,286046987.2,N,0.0,0.0
1487823875.5,286046989.3,N,0.0,0.0
1487823895.4,286046986.9,N,0.0,0.0
1487823915.2,286046988.2,N,0.0,0.0
1487823935.1,286046985.9,N,0.0,0.0
1487823955.9,286046988.3,N,0.0,0.0
1487823975.7,286046988.4,N,0.0,0.0
1487823995.5,286046984.3,Y,0.0,0.0
1487824015.4,286046995.8,N,0.0,0.0
1487824035.2,286046995.3,N,0.0,0.0
1487824055.0,286046993.6,N,0.0,0.0
1487824055.9,286046993.6,N,0.0,0.0
1487824075.8,286046992.4,N,0.0,0.0
1487824095.6,286046991.0,N,0.0,0.0
1487824115.4,286046988.8,N,0.0,0.0
1487824135.3,286046987.5,Y,0.0,0.0
1487824155.1,286046999.3,N,0.0,0.0
1487824175.8,286046999.6,N,0.0,0.0
1487824195.7,286046997.1,N,0.0,0.0
1487824215.5,286046997.3,N,0.0,0.0
1487824235.3,286046997.8,N,0.0,0.0
1487824255.2,286046995.5,N,0.0,0.0
1487824275.9,286046993.9,N,0.0,0.0
1487824295.7,286046992.1,N,0.0,0.0
1487824315.6,286046992.6,N,0.0,0.0
1487824335.9,286046991.0,N,0.0,0.0
1487824355.7,286046990.2,N,0.0,0.0
1487824375.5,286046991.2,N,0.0,0.0
1487824395.4,286046989.2,N,0.0,0.0
1487824415.2,286046987.1,N,0.0,0.0
1487824435.0,286046988.3,N,0.0,0.0
1487824435.9,286046988.3,N,0.0,0.0
1487824455.8,286046985.4,Y,0.0,0.0
1487824475.6,286046993.5,N,0.0,0.0
1487824495.4,286046992.2,N,0.0,0.0
1487824515.3,286046992.0,N,0.0,0.0
1487824535.1,286046993.1,N,0.0,0.0
1487824555.8,286046990.2,N,0.0,0.0
1487824575.7,286046990.7,N,0.0,0.0
1487824595.5,286046991.2,N,0.0,0.0
1487824615.3,286046988.6,Y,0.0,0.0
1487824635.2,286046996.7,N,0.0,0.0
1487824655.0,286046996.5,N,0.0,0.0
1487824655.9,286046996.5,N,0.0,0.0
1487824675.7,286046996.9,N,0.0,0.0
1487824695.6,286046996.2,N,0.0,0.0
1487824715.4,286046996.3,N,0.0,0.0
1487824735.2,286046993.8,N,0.0,0.0
1487824755.1,286046993.7,N,0.0,0.0
1487824756.0,286046993.7,N,0.0,0.0
1487824775.8,286046993.6,N,0.0,0.0
1487824795.6,286046992.4,N,0.0,0.0
1487824815.5,286046994.8,N,0.0,0.0
1487824835.3,286046992.8,N,0.0,0.0
1487824855.1,286046990.4,N,0.0,0.0
1487824875.9,286046990.6,N,0.0,0.0
1487824895.7,286046990.3,N,0.0,0.0
1487824915.5,286046988.6,Y,0.0,0.0
1487824935.4,286046997.8,N,0.0,0.0
1487824955.2,286046997.9,N,0.0,0.0
1487824975.0,286046995.9,N,0.0,0.0
1487824975.9,286046995.9,N,0.0,0.0
1487824995.8,286046993.8,N,0.0,0.0
1487825015.6,286046994.4,N,0.0,0.0
1487825035.4,286046992.2,N,0.0,0.0
1487825055.3,286046991.7,N,0.0,0.0
1487825075.1,286046990.5,Y,0.0,0.0
1487825095.8,286046999.0,N,0.0,0.0
1487825115.7,286046999.1,N,0.0,0.0
1487825135.5,286046996.5,N,0.0,0.0
1487825155.3,286046997.1,N,0.0,0.0
1487825175.2,286046995.2,N,0.0,0.0
1487825195.9,286046998.0,N,0.0,0.0
1487825215.7,286046995.7,N,0.0,0.0
1487825235.6,286046995.1,N,0.0,0.0
1487825255.4,286046996.4,N,0.0,0.0
1487825275.2,286046992.4,N,0.0,0.0
1487825295.1,286046992.3,N,0.0,0.0
1487825296.0,286046992.3,N,0.0,0.0
1487825315.8,286046990.1,Y,0.0,0.0
1487825335.6,286046997.2,N,0.0,0.0
1487825355.5,286046995.3,N,0.0,0.0
1487825375.3,286046995.9,N,0.0,0.0
1487825395.1,286046996.3,N,0.0,0.0
1487825415.9,286046993.8,N,0.0,0.0
1487825435.7,286046994.6,N,0.0,0.0
1487825455.5,286046994.4,N,0.0,0.0
1487825475.4,286046994.5,N,0.0,0.0
1487825495.2,286046994.2,N,0.0,0.0
1487825515.0,286046994.7,N,0.0,0.0
1487825515.9,286046994.7,N,0.0,0.0
1487825535.8,286046991.8,Y,0.0,0.0
1487825555.6,286046999.3,N,0.0,0.0
1487825575.4,286046998.6,N,0.0,0.0
1487825595.3,286047001.2,N,0.0,0.0
1487825615.1,286046998.1,N,0.0,0.0
1487825616.0,286046998.1,N,0.0,0.0
1487825635.8,286046996.9,N,0.0,0.0
1487825655.7,286046995.1,N,0.0,0.0
1487825675.5,286046997.4,N,0.0,0.0
1487825695.3,286046997.9,N,0.0,0.0
1487825715.1,286046995.6,N,0.0,0.0
1487825735.9,286046993.4,N,0.0,0.0
1487825755.7,286046993.8,N,0.0,0.0
1487825775.5,286046996.3,N,0.0,0.0
1487825795.4,286046994.6,N,0.0,0.0
1487825815.2,286046993.0,N,0.0,0.0
1487825835.0,286046991.8,Y,0.0,0.0
1487825836.0,286046991.8,Y,0.0,0.0
1487825855.8,286047001.7,N,0.0,0.0
1487825875.6,286047004.0,N,0.0,0.0
1487825895.5,286047001.8,N,0.0,0.0
1487825915.3,286047000.0,N,0.0,0.0
1487825935.1,286047000.7,N,0.0,0.0
1487825955.8,286046998.6,N,0.0,0.0
1487825975.8,286047001.2,N,0.0,0.0
1487825995.6,286046999.5,N,0.0,0.0
